Regional Weather Roundup
Issued by NWS

Home | Current Version | Previous Version | Text Only | Print | Product List | Glossary Off
Versions: 1 2 3 4 5 6 7 8 9 10 11 12 13 14 15 16 17 18 19 20 21 22 23 24 25 26 27 28 29 30 31 32 33 34 35 36 37 38 39 40 41 42 43 44 45 46 47 48 49 50

000
ASUS43 KOAX 270410
RWRNE

WEATHER ROUNDUP FOR NEBRASKA
NATIONAL WEATHER SERVICE OMAHA NE
1100 PM CDT SUN MAR 26 2017

NOTES: SATELLITE DATA IS BEING USED TO AUGMENT CLOUD COVER ABOVE
       12000 FEET.
       "FAIR" INDICATES FEW OR NO CLOUDS BELOW 12,000 FEET WITH NO
       SIGNIFICANT WEATHER AND/OR OBSTRUCTIONS TO VISIBILITY.

  * THESE STATIONS DO NOT REPORT WEATHER SUCH AS RAIN...SNOW OR FOG.

NEZ001>004-019>022-054>056-270500-
NEBRASKA PANHANDLE

CITY           SKY/WX    TMP DP  RH WIND       PRES   REMARKS
SCOTTSBLUFF    CLEAR     35  30  82 N6        29.96R WCI  30
ALLIANCE       CLOUDY    41  37  86 NE5       29.95S
CHADRON        MOCLDY    37  35  92 CALM      29.96R
KIMBALL        CLEAR     32  32  99 CALM      29.97S
SIDNEY         CLEAR     37  33  85 NW10      29.97R WCI  30
$$

NEZ057>060-069>072-079>082-270500-
SOUTHWEST NEBRASKA

CITY           SKY/WX    TMP DP  RH WIND       PRES   REMARKS
NORTH PLATTE   CLEAR     42  38  85 E7        29.93R
IMPERIAL       MOCLDY    43  40  89 SW7       29.93R
LEXINGTON      CLOUDY    44  41  89 CALM      29.93F
MCCOOK         MOCLDY    43  41  93 SW5       29.93S
OGALLALA       CLOUDY    48  38  66 N5        29.93R
$$

NEZ005>010-023>029-035>040-094-270500-
NORTH CENTRAL NEBRASKA

CITY           SKY/WX    TMP DP  RH WIND       PRES   REMARKS
VALENTINE      CLOUDY    41  35  79 NW5       29.97R
AINSWORTH      CLOUDY    42  41  97 CALM      29.96S
BROKEN BOW     CLOUDY    45  42  89 E3        29.93F
O`NEILL        CLOUDY    44  42  93 CALM      29.97S
ORD            CLOUDY    45  40  82 CALM      29.94F
THEDFORD       CLOUDY    45  41  86 E6        29.95S
$$

NEZ041-046>049-061>064-073>077-083>087-270500-
SOUTH CENTRAL NEBRASKA

CITY           SKY/WX    TMP DP  RH WIND       PRES   REMARKS
GRAND ISLAND   CLOUDY    46  45  96 NE6       29.94S
AURORA         CLOUDY    45  44  97 CALM      29.93F
HASTINGS       CLOUDY    46  44  93 E5        29.94F
HEBRON         CLOUDY    45  43  95 NE6       29.93F
HOLDREGE       CLOUDY    45  43  92 CALM      29.93S
KEARNEY *      CLOUDY    45  41  87 CALM      29.94S
YORK           CLOUDY    45  45 100 CALM      29.94F
$$

NEZ011>018-030>034-042>045-270500-
NORTHEAST NEBRASKA

CITY           SKY/WX    TMP DP  RH WIND       PRES   REMARKS
NORFOLK        CLOUDY    43  40  89 NE3       29.95F
ALBION         CLOUDY    46  42  89 CALM      29.96S
BLAIR          CLOUDY    46  43  88 N3        29.93F
FREMONT        CLOUDY    46  45  97 CALM      29.94F FOG
TEKAMAH        CLOUDY    46  42  86 NW7       29.96S
WAYNE          CLOUDY    43  42  97 CALM      29.96F
$$

NEZ050>053-065>068-078-088>093-270500-
SOUTHEAST NEBRASKA

CITY           SKY/WX    TMP DP  RH WIND       PRES   REMARKS
LINCOLN        CLOUDY    47  43  86 NE6       29.95F
OMAHA EPPLEY   CLOUDY    48  42  80 N3        29.94F
BEATRICE       DRIZZLE   46  44  92 NE3       29.93R
FALLS CITY     CLOUDY    47  44  90 N6        29.92F
NEBRASKA CITY  CLOUDY    46  45  97 CALM      29.94S
PLATTSMOUTH    CLOUDY    46  41  82 CALM      29.93F
$$

NEZ044-045-051>053-067-270500-
OMAHA AREA

CITY           SKY/WX    TMP DP  RH WIND       PRES   REMARKS
OMAHA EPPLEY   CLOUDY    48  42  80 N3        29.94F
BLAIR          CLOUDY    46  43  88 N3        29.93F
FREMONT        CLOUDY    46  45  97 CALM      29.94F FOG
MILLARD        CLOUDY    49  44  83 CALM      29.94F
OFFUTT AFB     CLOUDY    47  43  86 NE5       29.93F
PLATTSMOUTH    CLOUDY    46  41  82 CALM      29.93F
WAHOO          CLOUDY    44  43  96 N6        29.94F
$$




USA.gov is the U.S. government's official web portal to all federal, state and local government web resources and services.